ECMWFFLT2_sfc_dewp_021.txt.gz
Dewpoint
70 70 70 71 72 71 71 71 71 71 71 71 71 71 71 71 71 71 71 70 70 72 72 70 69 67 69 69 70 69 69 69 69 69 69 69 68 68 67 68 68 68 68 68 67 66 66 66 66 67 67 68 68 67 66 66 65 64 63 64 64 62
71 71 71 71 71 71 71 71 71 72 69 70 71 71 71 69 69 70 70 71 71 71 69 69 69 67 69 69 69 69 69 69 68 69 69 69 68 67 67 68 68 68 67 67 66 64 64 64 65 66 67 68 67 66 67 66 65 63 63 64 63 65
71 71 70 72 71 71 72 72 70 69 71 69 70 70 69 69 68 70 70 69 71 70 68 68 69 68 68 69 69 69 69 68 68 68 68 69 69 68 68 69 69 68 67 66 67 64 62 61 62 64 66 67 66 66 67 66 65 64 63 64 63 65
68 70 69 70 70 70 70 68 70 70 70 71 69 69 68 69 68 69 69 69 69 68 68 69 69 69 68 68 69 69 69 69 69 69 69 68 68 68 68 68 68 67 66 66 66 64 60 60 60 63 66 66 65 67 66 66 63 64 64 63 61 65
69 70 69 69 68 69 70 69 70 70 69 69 69 69 69 69 69 69 69 69 67 68 68 68 70 70 67 68 69 69 68 66 66 67 68 66 66 67 67 65 66 66 66 66 65 66 63 61 62 62 63 65 66 66 66 66 65 63 64 65 64 65
68 69 69 69 68 69 68 69 69 69 68 69 69 70 69 69 69 69 69 69 68 68 68 68 70 69 68 68 68 67 67 67 66 67 67 65 65 65 65 64 65 65 65 65 66 65 64 62 61 60 60 64 66 66 65 63 64 65 65 64 65 66
68 69 68 68 68 69 69 69 69 68 68 68 70 69 69 69 69 69 69 69 69 69 68 68 69 69 68 68 67 67 67 67 67 66 66 64 65 65 64 64 64 65 65 65 64 63 63 62 63 59 60 59 63 64 65 64 64 64 65 64 65 66
66 67 68 67 68 70 70 69 68 68 69 69 68 68 69 69 69 69 69 69 70 69 68 66 69 68 68 69 69 67 66 67 67 66 66 66 64 64 64 65 66 64 63 63 60 63 62 61 62 63 61 61 61 63 65 64 65 65 65 65 64 66
66 66 67 69 67 68 68 67 68 68 67 69 68 69 69 69 69 69 69 69 69 69 69 68 68 67 68 68 69 68 68 67 67 67 66 67 64 65 65 65 65 63 63 63 63 63 62 61 62 63 61 60 61 61 64 65 65 65 65 65 64 65
65 65 66 67 67 67 67 66 66 67 68 69 68 69 69 68 68 69 69 68 69 69 69 68 68 68 67 68 68 69 68 68 67 66 65 66 67 66 66 64 64 64 60 62 62 63 63 60 59 61 60 60 61 61 63 64 64 64 64 65 65 66
65 68 66 65 67 66 67 66 67 67 67 68 69 69 69 69 69 69 69 69 68 68 69 69 68 67 67 67 68 68 68 67 67 66 67 67 67 66 66 66 65 63 62 62 62 63 61 61 60 59 61 59 61 62 62 64 63 63 63 65 64 66
66 68 68 65 66 66 66 66 67 66 67 68 69 69 69 68 68 68 68 68 68 67 67 68 68 68 67 67 67 67 66 67 67 66 67 66 67 66 66 65 65 66 66 65 63 63 63 61 60 58 59 59 60 62 62 63 63 64 63 65 64 66
66 68 67 66 65 65 66 66 66 66 67 68 69 68 68 67 67 66 65 66 66 66 66 66 65 64 65 66 66 66 67 67 66 67 67 67 66 67 67 66 66 66 65 64 64 64 62 63 62 62 61 60 61 60 60 61 63 63 63 64 64 64
67 66 67 66 67 65 66 66 67 66 67 68 68 69 68 66 66 65 64 64 65 64 64 65 64 64 65 65 64 64 65 65 66 66 66 67 65 65 66 66 64 63 63 63 63 63 62 62 62 61 62 61 62 64 62 60 63 63 64 64 64 64
68 67 67 67 66 66 67 66 66 66 67 67 67 67 67 64 65 65 65 65 64 64 64 64 64 65 64 64 64 64 65 66 66 66 66 66 66 65 66 65 63 62 63 64 64 63 63 63 63 62 63 64 61 61 63 62 63 62 61 64 64 64
68 68 68 68 68 68 67 67 67 67 67 68 67 67 67 66 65 66 66 65 65 64 64 64 64 64 64 64 64 65 65 65 65 66 67 66 66 65 66 66 65 64 63 63 63 64 64 64 64 62 63 63 63 63 62 62 63 61 62 62 61 64
67 68 68 68 67 67 67 67 67 67 67 67 67 66 66 66 66 65 65 65 65 65 65 64 64 64 65 64 65 64 65 65 66 66 67 66 66 65 66 65 65 65 64 63 62 62 63 63 62 63 64 64 64 64 63 64 63 63 61 63 63 62
68 68 67 67 67 66 66 66 66 66 67 66 65 65 65 65 65 65 65 64 65 66 65 64 64 64 64 64 64 64 64 65 64 66 65 66 66 66 66 66 65 65 64 63 62 60 61 61 62 62 62 63 64 64 64 64 64 64 64 62 63 63
67 67 66 66 66 65 65 65 65 65 65 64 64 64 65 65 65 65 64 64 64 65 65 64 65 65 64 64 64 64 65 65 65 66 65 65 65 65 65 66 65 63 65 64 63 62 62 63 62 62 60 62 63 64 64 64 63 63 64 64 64 63
67 66 66 65 65 64 64 64 64 63 64 64 64 63 64 64 64 64 64 65 64 65 64 64 64 64 65 65 65 65 64 65 65 65 65 64 64 64 65 65 64 63 63 62 62 62 62 62 63 61 61 61 61 63 63 63 63 61 61 63 64 64
66 66 65 64 64 64 64 63 63 64 64 63 62 63 63 64 64 64 64 63 63 63 64 64 64 64 64 64 64 65 64 64 64 64 64 64 64 64 64 65 64 64 63 62 62 62 62 62 60 59 60 60 61 61 62 61 62 61 60 61 61 62
65 65 65 65 65 65 64 63 64 63 63 62 62 62 62 63 63 64 64 63 64 64 64 64 64 64 64 64 64 64 64 63 64 64 64 64 63 63 63 63 63 62 62 63 62 62 62 62 58 58 57 57 58 60 60 61 60 60 61 61 62 62
65 65 65 65 65 64 64 64 64 63 62 61 61 63 62 62 63 61 63 63 63 65 63 63 64 63 64 64 64 64 63 63 64 64 63 63 64 63 63 63 63 62 61 62 62 61 62 62 60 60 60 57 56 55 58 60 61 60 60 62 62 59
64 65 65 65 64 65 64 63 64 63 63 62 61 60 61 60 59 59 59 60 61 64 64 63 62 62 63 64 64 63 64 63 63 64 63 63 63 62 63 63 63 63 62 59 60 60 62 62 61 59 55 57 57 56 54 55 57 59 60 59 59 58
63 63 64 64 64 63 62 61 60 61 60 59 59 59 59 57 59 58 57 59 60 62 64 63 64 63 63 63 64 64 64 63 63 63 63 62 62 62 62 63 63 63 62 61 60 61 61 61 62 63 59 55 53 53 53 57 57 57 59 57 57 57
62 62 63 64 63 62 61 61 60 59 58 58 58 58 57 56 56 57 55 57 58 61 63 64 64 64 63 64 64 64 64 63 63 62 62 62 61 62 62 62 62 62 61 62 61 60 60 61 61 62 62 63 61 56 55 58 56 52 58 59 58 55
61 61 62 63 63 62 62 62 62 62 61 60 58 57 58 59 58 55 56 57 57 60 61 64 64 64 64 63 64 64 64 63 63 62 62 62 62 62 61 60 62 61 62 62 61 60 60 59 60 61 61 62 61 61 61 55 53 55 52 51 52 53
60 60 61 62 62 63 62 62 63 62 61 60 59 57 58 58 57 55 55 56 57 58 59 61 63 63 64 64 63 63 63 63 62 62 61 61 61 61 62 61 62 63 62 62 62 59 60 60 59 59 61 60 61 61 60 60 56 54 52 48 45 47
60 60 60 62 62 62 62 62 62 61 59 58 58 58 57 54 53 55 56 56 57 56 58 59 60 61 61 62 63 63 63 63 62 62 62 61 62 62 62 62 62 61 61 62 62 61 60 59 60 59 60 59 59 58 59 60 59 56 51 49 46 44
59 59 59 61 61 61 61 61 61 60 60 58 58 57 55 53 53 55 55 56 57 58 58 59 59 59 60 59 61 63 63 63 61 61 61 61 62 62 62 62 62 62 62 62 61 61 61 60 60 61 60 60 59 58 58 57 57 54 52 51 47 44
59 58 58 60 60 60 60 61 60 60 60 59 59 57 55 54 52 54 54 54 56 57 57 58 58 59 59 60 61 61 62 62 62 61 60 60 62 60 60 61 61 62 62 61 60 60 60 60 60 59 59 59 58 58 56 55 54 53 51 49 46 45
59 58 58 59 59 59 59 59 59 60 59 59 59 57 56 54 53 53 54 53 54 56 56 57 58 58 59 59 60 60 59 60 59 60 60 60 60 59 59 58 58 59 59 60 61 60 60 59 60 59 59 57 54 55 54 52 52 52 51 48 47 45
58 58 58 58 58 58 58 57 58 58 59 60 59 58 57 56 55 54 53 53 54 54 55 56 57 57 58 58 58 58 58 58 58 58 58 57 58 56 56 55 55 56 57 58 58 59 57 58 58 54 52 53 49 49 49 51 50 48 49 47 46 43
59 58 56 56 56 56 57 57 58 58 59 58 59 58 57 55 55 55 54 54 53 54 55 57 57 57 56 56 57 58 58 57 56 56 56 56 56 54 55 51 55 55 55 55 55 56 55 55 55 55 54 50 51 49 50 51 50 48 46 44 40 42
57 55 55 55 56 57 57 57 58 58 60 59 58 57 57 57 56 55 54 55 55 55 54 55 54 55 55 56 57 57 57 56 55 56 55 55 54 54 55 52 52 55 53 53 54 54 53 54 53 52 54 51 51 50 49 47 46 43 41 43 43 45
55 56 57 56 56 59 60 60 59 59 59 58 58 58 56 55 55 56 56 55 55 55 54 54 54 55 55 55 56 56 55 55 55 55 54 54 53 52 55 53 52 53 51 51 54 53 52 53 54 54 53 52 48 47 49 46 45 46 43 45 44 46
56 57 57 55 55 60 60 60 59 60 59 58 58 58 57 57 57 57 57 55 54 55 56 55 55 56 55 55 55 56 55 55 55 55 54 53 53 53 53 53 52 52 51 52 52 51 52 51 52 52 51 52 48 46 47 50 48 48 49 50 48 46

ECMWFFLT2_sfc_dewp_024.txt.gz
Dewpoint
68 69 70 71 73 71 69 69 69 69 70 71 70 70 71 71 71 71 70 70 70 69 70 70 69 67 70 68 70 69 69 69 68 68 68 68 68 68 68 68 67 67 66 66 65 66 66 66 66 67 67 69 68 67 65 63 64 63 61 61 61 62
69 70 69 69 68 69 68 69 70 71 71 70 69 69 70 69 69 69 70 70 70 69 68 68 68 67 68 68 69 69 69 69 68 68 68 68 68 68 68 68 68 67 65 66 67 63 62 65 66 67 67 69 68 64 64 64 64 61 61 62 61 64
68 69 68 68 67 68 70 69 70 70 69 69 69 69 68 67 66 67 66 67 69 69 67 67 68 66 67 67 69 69 69 69 68 68 68 68 68 68 68 68 68 67 66 66 66 59 59 59 62 66 68 68 65 63 64 64 63 63 61 61 62 66
68 69 69 71 68 71 70 70 69 69 69 68 70 67 66 66 67 68 69 70 68 67 68 69 67 68 67 67 69 69 68 68 68 68 69 68 69 68 68 68 68 66 67 64 59 57 56 57 59 64 65 64 63 64 63 63 60 62 62 59 60 67
67 69 68 70 71 70 69 70 69 69 70 70 67 66 67 69 69 69 68 69 65 68 67 67 68 66 65 66 65 65 66 66 64 64 68 64 64 65 67 65 63 64 62 60 58 59 59 59 62 62 63 63 64 64 63 62 61 60 62 63 64 67
68 69 69 68 69 70 72 69 70 70 71 69 69 69 68 69 69 69 68 68 68 69 68 68 68 67 66 67 66 64 64 65 64 62 62 61 61 62 63 64 61 60 59 60 60 59 59 59 60 60 60 65 65 64 62 60 60 61 63 63 64 67
68 68 69 68 69 68 68 68 69 69 69 68 67 68 70 70 69 69 69 69 69 68 67 68 68 68 66 66 65 65 63 63 63 62 62 62 64 62 60 61 61 61 59 59 57 58 57 59 59 58 60 62 63 63 63 61 61 61 62 63 65 67
65 68 68 67 68 68 68 68 68 68 68 69 67 69 69 69 69 69 69 69 70 68 66 67 68 68 66 66 66 66 65 62 61 62 62 63 64 62 60 61 61 58 57 58 57 57 56 56 59 60 58 60 62 63 63 61 63 63 63 64 63 67
66 66 67 68 67 69 68 68 68 68 68 67 67 67 68 69 69 69 70 69 68 68 67 68 67 67 66 67 68 68 66 64 64 62 63 64 64 65 63 60 59 58 59 58 58 58 56 57 60 61 59 59 59 61 63 64 64 62 62 62 64 65
64 63 65 66 68 68 68 68 67 66 67 67 68 67 68 68 68 68 68 68 68 68 69 69 68 67 65 68 68 69 68 67 65 64 63 65 65 65 64 61 60 59 56 59 58 58 57 57 56 59 59 59 59 59 63 62 62 61 62 63 63 64
63 66 65 64 67 67 67 67 66 67 67 67 67 69 70 69 69 69 69 69 68 67 67 66 67 65 66 67 67 67 67 67 68 68 66 68 66 67 66 62 61 60 59 59 59 57 55 56 56 56 57 56 58 60 60 62 61 61 61 63 63 65
64 67 64 61 65 65 67 67 67 66 65 66 70 69 68 69 69 68 67 66 67 66 65 66 64 64 64 68 66 66 65 66 67 67 67 65 66 67 67 62 61 62 62 62 60 59 58 56 57 55 56 55 57 58 58 60 59 61 60 63 62 64
64 68 64 66 66 66 65 65 66 66 67 69 69 69 68 68 69 66 65 66 66 65 65 66 66 65 65 66 66 67 67 67 67 66 66 65 66 66 67 65 63 62 63 63 61 60 57 59 58 58 57 56 58 55 55 56 59 61 62 62 61 63
66 65 66 65 66 65 67 66 65 66 68 68 68 68 68 68 69 67 66 65 65 64 65 66 65 64 64 66 67 67 67 68 67 66 66 65 65 65 66 66 62 61 61 62 62 61 58 59 57 57 58 56 58 59 58 54 59 60 61 61 62 64
67 67 66 65 65 66 65 64 64 66 67 68 68 68 68 68 68 68 66 66 65 65 64 65 64 65 65 65 65 66 67 68 66 66 68 68 67 65 65 64 62 60 60 62 62 62 61 61 59 58 59 60 57 56 58 58 58 57 56 60 64 63
67 67 67 67 67 66 66 67 68 67 69 69 68 67 68 67 67 66 67 66 65 65 65 64 64 64 65 65 65 66 66 67 66 66 67 67 65 65 66 65 64 63 61 61 60 61 62 63 63 62 61 61 60 59 59 60 60 58 58 60 59 63
66 65 67 67 66 67 68 68 68 67 66 67 67 66 66 67 67 66 66 66 66 66 65 65 65 64 65 65 65 65 66 66 66 66 67 68 65 65 66 64 65 65 63 61 59 59 63 63 63 63 64 66 65 65 63 64 63 63 60 63 65 66
67 67 69 67 67 67 67 68 67 66 68 66 66 66 66 65 65 64 64 64 66 66 65 65 65 65 66 65 65 65 65 66 66 66 66 66 67 67 67 65 65 66 63 63 61 60 61 62 62 62 64 65 65 64 63 65 64 63 63 63 65 64
67 69 68 68 67 68 68 68 67 67 66 66 66 65 63 63 65 64 64 65 65 66 65 65 65 66 66 64 65 65 65 65 66 66 66 65 65 67 67 67 65 65 66 63 62 63 63 63 63 62 62 63 64 64 64 64 64 64 64 65 65 64
68 69 68 68 67 67 67 66 65 65 63 63 63 62 63 62 63 63 64 64 64 65 64 65 65 65 65 66 66 65 65 65 66 65 65 64 64 65 66 66 66 65 65 64 63 63 64 63 63 63 63 63 62 64 64 63 64 63 64 64 64 64
67 68 67 66 66 66 65 64 64 63 61 61 60 62 62 62 61 61 63 60 62 62 64 64 65 65 66 65 66 66 65 65 66 65 65 63 65 65 64 64 65 65 64 63 63 64 64 64 62 61 62 62 63 61 62 61 62 61 60 60 61 61
67 68 68 67 67 66 65 62 61 59 59 59 58 58 59 61 63 62 63 63 62 62 63 64 63 66 66 66 66 65 66 65 65 65 65 65 65 65 65 64 64 63 63 62 63 63 63 63 60 59 58 58 59 60 61 61 58 57 58 58 60 60
67 67 67 67 66 64 63 64 62 60 59 57 58 60 57 60 61 60 63 62 63 63 62 61 62 64 66 65 65 65 65 66 66 65 65 64 65 65 65 64 64 63 62 63 62 63 64 63 58 60 59 56 54 55 59 59 60 58 58 59 59 58
67 67 67 66 65 64 64 66 65 64 63 61 61 63 63 63 60 60 59 61 61 63 61 60 59 59 61 63 66 65 66 65 65 65 64 64 64 63 64 64 64 63 63 61 60 60 63 64 62 60 57 55 55 55 53 55 57 57 58 58 58 56
67 66 66 65 64 64 65 65 66 66 65 64 62 61 59 58 59 57 56 58 59 61 60 59 60 60 58 60 61 62 62 63 64 65 64 63 63 62 62 63 63 63 62 61 60 61 61 63 64 63 60 55 55 53 54 57 57 57 59 55 56 55
66 65 65 65 65 64 64 63 61 60 59 59 58 59 57 57 56 57 52 54 55 59 59 60 58 58 58 59 61 61 62 60 61 61 62 63 62 61 62 62 62 62 61 63 62 60 60 62 63 64 63 64 61 57 56 55 54 53 58 59 55 51
66 65 65 65 65 65 64 63 63 60 59 58 57 58 59 58 57 54 55 56 55 60 59 59 59 58 58 59 60 61 62 61 59 61 61 61 61 62 60 60 61 61 61 62 63 61 59 60 61 62 62 62 62 60 59 54 54 53 52 53 53 52
67 65 66 66 65 65 64 63 63 61 59 57 58 59 60 60 59 56 54 55 56 57 59 58 58 57 58 57 59 59 60 61 59 58 58 57 59 60 60 62 63 62 61 61 62 60 60 60 59 60 62 61 60 60 60 58 56 54 51 49 48 50
67 66 66 66 66 65 64 63 62 61 59 59 59 59 58 57 56 56 56 56 56 55 58 59 58 58 58 57 57 57 59 59 60 59 57 57 60 61 64 64 64 62 62 61 61 61 60 59 59 60 60 61 60 57 57 58 58 55 50 49 47 48
66 66 65 66 66 65 64 63 61 61 60 59 59 57 56 56 56 56 55 57 56 56 55 57 58 58 58 56 57 57 57 59 60 58 56 59 60 61 63 63 64 64 63 62 62 61 60 59 60 62 60 60 58 57 57 57 56 55 52 52 47 45
65 64 64 65 65 66 64 63 61 62 61 61 60 58 57 57 55 55 54 55 54 54 55 55 56 58 58 56 57 56 57 59 60 59 57 56 57 56 59 61 62 63 64 63 62 62 61 60 60 59 59 57 57 56 56 55 55 54 54 52 48 47
63 64 63 63 65 65 63 63 63 62 60 61 61 58 57 56 54 54 54 54 53 53 54 54 55 55 56 56 56 55 58 58 58 59 57 56 56 56 57 58 59 60 61 63 63 62 62 62 61 60 60 59 57 58 57 56 55 54 52 51 50 48
62 63 64 64 64 64 64 63 62 61 61 61 60 58 57 55 55 53 53 52 53 52 51 52 54 55 56 56 55 55 57 56 57 58 57 55 56 56 55 55 56 58 59 60 60 61 61 62 62 60 59 60 55 55 54 54 54 53 52 51 50 46
59 61 62 62 63 62 62 62 62 61 61 60 60 59 57 55 54 53 53 52 53 51 51 53 55 55 54 54 54 57 59 58 58 58 58 58 57 55 55 51 54 56 57 58 60 61 61 60 59 57 55 53 53 52 51 51 50 50 50 49 46 46
57 59 59 60 60 59 59 61 61 60 60 60 59 58 55 55 55 54 53 53 52 52 52 52 53 54 54 55 56 57 57 57 57 57 57 57 55 55 55 51 53 55 54 54 55 55 56 56 55 53 54 50 48 45 42 40 40 40 38 43 43 44
56 57 58 58 58 59 59 60 61 62 62 60 58 57 56 54 55 55 55 53 52 52 52 53 54 54 55 55 55 55 55 54 54 54 55 55 54 53 54 52 50 52 52 51 54 54 53 54 55 54 51 47 43 42 43 39 40 39 37 42 43 41
57 58 58 58 59 60 62 62 62 61 61 61 60 58 57 58 57 57 55 53 51 52 54 53 53 54 54 54 53 53 52 52 51 51 52 52 52 53 53 52 50 50 51 51 50 49 49 49 51 48 49 48 44 44 46 47 44 45 44 43 41 42

ECMWFFLT2_sfc_dewp_030.txt.gz
Dewpoint
69 70 71 69 69 70 70 70 71 71 71 71 71 71 71 71 70 70 70 68 66 67 69 70 70 69 69 69 70 69 68 69 68 68 67 67 67 67 67 67 67 66 67 67 67 67 67 66 66 67 67 69 70 68 67 67 59 61 62 63 64 64
69 69 69 69 68 67 68 70 71 70 70 70 70 70 70 69 69 68 67 66 67 68 67 68 71 69 69 69 68 69 68 68 68 68 67 67 66 66 66 65 65 66 66 66 66 65 65 66 66 65 68 69 69 68 66 66 64 61 62 63 64 67
69 70 69 67 68 68 67 69 69 69 69 69 69 68 68 68 68 67 67 68 68 68 69 69 70 68 68 69 69 69 68 68 68 68 68 67 66 66 65 65 65 65 65 66 66 63 61 61 64 67 67 67 68 67 65 66 61 61 61 63 64 68
69 68 68 67 67 68 69 69 69 68 69 68 68 68 67 67 67 67 67 68 68 68 68 68 69 66 67 68 69 69 69 68 68 68 68 67 67 66 66 66 66 66 66 64 61 61 58 57 61 63 65 67 66 66 66 63 60 61 62 64 65 68
68 69 68 67 67 67 67 68 68 69 69 68 67 68 68 68 68 68 69 69 68 68 69 70 70 70 69 68 67 68 68 67 67 67 68 66 67 67 66 64 63 64 63 61 59 61 62 59 62 62 63 66 65 65 64 65 60 60 61 64 67 68
68 68 68 68 68 67 68 68 68 68 68 67 68 67 68 68 67 67 68 68 68 68 69 70 69 69 69 69 68 66 66 68 65 66 67 66 66 66 67 65 63 60 60 61 61 61 61 62 62 61 62 64 65 66 63 63 62 62 63 65 67 67
68 68 68 68 68 68 67 67 67 68 67 67 67 68 68 68 67 66 67 68 68 67 68 69 68 67 68 69 69 69 68 68 66 66 66 67 65 66 65 65 66 65 64 63 58 57 59 61 62 59 63 62 64 63 64 62 62 62 63 65 67 67
68 67 67 68 68 67 68 67 68 69 65 67 67 68 69 67 67 67 68 68 69 68 68 69 68 67 67 68 68 68 69 68 68 68 68 66 67 66 66 67 67 64 63 59 55 59 57 56 62 63 62 62 62 61 64 61 62 61 62 64 66 67
67 67 68 68 66 68 68 68 67 67 66 67 67 67 68 68 67 67 67 67 67 68 68 68 67 67 67 68 68 68 67 68 68 68 68 68 67 68 67 68 67 64 62 60 59 59 58 59 62 63 63 63 62 62 65 67 64 61 61 63 64 66
67 67 68 67 67 66 67 68 68 67 67 66 66 66 68 67 68 67 68 66 67 68 67 67 67 68 66 67 67 67 67 66 67 67 68 68 68 68 68 68 67 66 63 61 60 59 61 59 55 60 60 60 65 63 65 66 66 63 61 62 65 66
67 67 67 65 67 68 68 68 67 67 67 67 66 67 67 67 68 68 68 67 67 67 68 68 68 67 68 67 67 68 68 67 68 68 68 68 68 68 68 67 68 67 65 64 63 62 59 57 58 56 59 57 62 65 64 66 66 65 62 62 64 65
68 68 68 67 68 66 66 65 66 67 68 67 68 68 67 67 68 68 67 67 68 68 68 68 68 67 67 68 68 68 67 67 67 68 67 67 68 68 67 67 67 67 68 67 65 62 62 60 60 55 60 57 61 65 65 66 65 67 67 61 62 63
68 67 67 67 67 68 68 66 65 67 67 67 68 68 67 67 66 66 67 67 67 67 68 68 68 67 66 68 68 67 66 68 68 68 68 68 68 68 68 68 67 68 67 67 66 63 62 62 59 59 61 58 59 60 64 65 65 66 66 63 62 63
67 67 66 66 66 67 68 68 68 67 67 68 68 68 68 67 67 67 67 67 68 67 67 67 67 67 66 65 65 66 66 67 68 68 67 68 68 68 67 67 66 67 66 66 66 64 63 63 64 63 64 58 65 63 62 64 63 65 66 66 67 65
67 67 67 66 66 67 67 66 67 69 69 69 68 68 68 68 67 67 66 67 67 68 67 67 66 67 64 66 65 66 66 68 67 67 67 68 68 67 67 67 66 65 66 66 66 65 63 62 65 63 64 64 61 60 65 65 65 63 64 64 66 66
67 67 67 67 67 68 68 68 67 68 68 67 68 65 67 68 67 69 68 67 67 67 67 66 65 66 67 64 64 67 67 66 67 67 67 67 67 66 67 67 66 66 65 65 64 64 64 63 62 63 64 64 64 64 64 63 63 63 65 64 64 65
66 67 67 67 67 67 68 67 67 67 65 67 68 68 67 69 67 66 68 66 67 67 66 66 66 66 67 67 65 66 66 66 67 66 66 67 66 66 65 65 65 65 65 64 65 65 64 63 63 64 64 64 65 65 64 63 63 65 66 64 64 65
66 66 67 67 66 67 67 67 66 66 64 66 64 66 67 66 66 67 66 65 66 67 67 66 66 66 66 65 65 65 66 66 66 66 66 66 66 66 66 66 65 65 65 65 64 64 63 64 65 64 64 64 65 65 65 64 64 66 65 63 64 63
66 67 66 66 66 66 67 66 65 65 64 64 64 64 66 67 65 65 66 66 65 66 65 67 65 66 65 64 64 65 66 65 65 66 66 65 64 65 65 65 65 65 65 65 65 65 64 63 62 63 62 64 64 64 65 66 65 64 64 63 63 65
66 66 65 65 65 65 65 65 63 63 63 64 64 63 65 64 64 65 65 64 64 67 64 66 65 66 66 65 65 65 65 65 66 65 64 63 63 64 64 64 64 64 64 64 65 64 64 63 63 62 62 62 63 64 65 64 65 63 63 63 63 64
65 65 64 64 64 64 63 63 63 62 62 62 60 64 63 62 64 64 63 61 63 63 65 65 65 67 67 66 65 65 65 65 66 65 65 65 64 64 64 65 65 65 64 63 63 64 64 64 62 61 62 62 62 64 64 64 64 62 62 63 63 64
65 65 65 65 64 65 65 63 63 60 61 60 59 62 62 62 62 63 64 65 67 63 64 65 66 65 66 65 65 65 64 64 65 65 65 64 64 65 64 65 65 64 65 64 64 64 64 63 60 59 59 58 59 62 63 64 61 60 62 62 63 64
65 65 65 66 65 66 67 67 69 65 60 58 59 61 56 57 61 59 67 65 67 66 64 62 64 65 64 65 65 65 64 64 64 65 64 64 64 65 65 65 64 64 63 64 64 63 63 64 60 61 61 58 57 57 60 62 63 61 61 63 64 64
65 65 65 66 66 66 67 66 66 65 64 64 60 61 62 63 61 60 61 63 66 67 66 62 60 61 64 65 64 66 65 65 64 65 65 64 64 63 64 64 64 64 64 62 61 63 64 64 61 59 57 57 57 58 55 56 60 61 63 61 63 63
65 65 65 65 65 65 66 66 65 62 60 60 62 61 61 59 60 61 60 63 64 65 63 61 62 62 61 63 63 64 65 64 66 66 65 65 64 63 64 64 64 64 63 62 61 62 62 64 63 64 60 56 56 55 55 57 58 59 62 62 63 61
65 65 65 64 64 64 64 62 62 61 60 60 61 61 61 58 58 58 57 61 60 62 61 65 64 60 59 62 63 64 65 64 64 66 65 65 64 63 63 63 63 63 63 63 62 61 61 62 64 64 63 64 61 56 56 57 56 54 61 62 62 62
64 64 64 64 63 64 62 61 61 62 63 62 61 62 61 63 62 56 60 64 62 64 59 63 64 62 64 64 64 64 64 63 63 63 64 65 64 63 62 61 63 63 62 63 62 61 61 61 63 64 64 63 62 61 60 57 56 55 52 57 58 53
63 63 63 63 63 63 62 61 61 63 61 61 63 61 63 62 62 61 61 60 62 66 60 59 64 61 61 63 64 64 63 64 62 59 59 61 63 64 65 61 64 64 63 63 63 61 60 60 60 61 63 62 62 61 61 61 58 57 52 50 50 52
62 62 63 63 64 64 63 62 61 60 63 60 60 61 59 58 60 61 61 61 63 59 61 62 59 62 63 62 62 63 64 63 61 62 58 59 63 63 64 64 63 64 66 64 64 62 61 61 61 61 61 60 62 61 61 61 62 60 57 49 50 51
62 63 63 64 64 63 62 62 61 60 61 60 60 59 59 59 60 62 62 63 61 61 59 63 65 62 63 59 62 63 61 63 63 59 59 60 62 64 65 64 65 64 65 64 65 62 62 61 61 62 62 62 60 60 59 59 60 59 58 57 51 49
62 63 63 63 63 61 61 61 61 59 60 60 61 61 58 58 59 61 60 61 61 61 61 60 62 63 62 60 62 62 63 62 61 62 60 59 61 59 62 64 65 65 63 63 63 62 62 61 61 61 61 61 60 59 58 57 58 58 58 56 50 50
62 63 63 62 62 61 61 61 61 60 61 62 62 59 59 58 58 58 60 61 63 62 59 61 62 62 61 61 62 62 62 61 61 62 62 64 61 59 60 61 63 63 63 63 64 62 62 62 62 61 61 61 61 60 60 59 60 60 58 57 52 50
61 63 62 62 62 61 60 61 61 61 63 61 61 60 60 60 60 60 60 60 59 60 59 59 61 59 60 60 61 63 61 62 61 60 61 60 59 58 60 60 60 61 61 61 63 62 62 62 61 61 60 61 61 60 61 62 60 60 60 58 56 49
60 62 62 62 61 61 61 61 61 62 61 61 61 61 61 60 61 60 61 61 61 59 60 60 59 61 60 61 60 58 60 60 60 60 60 59 60 59 59 56 58 59 60 61 62 62 63 62 62 61 60 59 59 59 58 60 59 59 58 57 53 49
61 62 62 61 60 60 60 61 61 61 60 62 60 60 59 60 61 61 62 61 62 60 60 59 59 60 61 61 61 61 61 59 57 58 59 58 60 58 58 55 56 59 59 59 60 61 61 59 58 57 58 57 56 54 56 57 57 56 55 55 54 49
62 62 61 60 61 60 61 62 63 60 60 61 59 60 59 60 62 64 63 63 61 62 59 58 58 60 61 61 59 58 57 58 59 59 59 58 59 56 58 57 56 57 56 57 58 57 54 55 56 56 55 54 50 50 50 51 48 50 50 55 53 51
61 61 61 62 61 61 62 62 62 62 62 62 59 59 58 60 61 63 64 62 62 59 58 58 58 60 59 60 60 58 56 57 58 59 58 58 58 57 56 56 55 54 53 53 53 51 54 53 53 52 52 51 50 50 50 52 50 52 53 53 54 58

ECMWFFLT2_sfc_dewp_033.txt.gz
Dewpoint
70 69 69 70 70 70 71 72 71 71 71 70 70 70 70 69 69 69 68 69 69 68 70 70 70 70 70 70 70 69 69 69 68 68 68 68 67 67 67 67 68 67 68 67 67 67 67 67 66 66 68 68 70 68 67 63 62 64 63 64 65 64
69 69 69 69 69 69 70 70 69 69 69 69 69 70 69 68 69 67 67 67 67 68 68 69 69 70 69 69 69 69 69 68 68 68 67 67 67 67 67 67 67 66 67 66 67 65 66 68 67 66 67 68 68 66 66 62 62 63 64 64 65 66
69 68 68 68 68 68 69 68 68 68 69 69 69 69 68 68 66 66 66 67 68 67 67 69 70 70 70 69 69 69 69 68 68 68 67 67 67 66 66 65 66 65 65 66 64 64 63 63 64 67 67 67 65 66 65 62 62 63 64 65 65 67
68 67 67 67 67 67 68 67 68 68 68 68 67 67 67 66 66 66 67 66 66 67 67 67 69 69 70 69 68 69 69 69 68 68 67 67 66 66 66 66 66 66 68 67 63 62 62 60 62 63 63 64 65 66 64 62 62 63 65 67 66 68
68 67 67 67 67 67 67 67 67 67 65 66 67 67 67 66 65 66 67 67 67 67 67 68 69 68 68 68 68 67 68 67 67 67 68 66 65 66 66 64 64 65 64 63 62 61 61 60 61 62 63 64 65 65 62 62 63 64 65 66 67 68
68 67 66 66 66 67 67 67 66 65 65 66 67 67 67 66 66 66 67 68 67 67 67 68 67 67 67 67 67 67 66 66 65 66 68 66 65 64 64 66 65 63 62 61 61 61 61 62 61 62 61 63 65 64 61 62 63 64 66 66 67 68
68 67 67 67 67 67 67 68 67 66 65 66 67 67 67 66 66 66 67 68 66 66 67 67 66 66 66 67 67 66 66 66 65 64 66 65 64 65 65 65 64 65 65 64 63 62 60 60 61 61 62 63 63 62 64 62 64 65 66 66 67 67
68 67 67 68 67 67 67 66 67 68 66 67 67 67 67 66 66 66 68 68 67 66 67 66 65 65 66 66 66 66 66 66 65 65 66 65 64 65 64 64 65 65 63 62 60 60 58 58 61 61 62 62 61 63 65 65 64 65 65 66 66 68
67 67 67 68 66 66 66 66 66 66 66 68 65 66 67 67 66 67 67 67 67 66 66 65 65 65 65 65 65 65 65 65 65 65 66 65 65 65 64 65 64 64 63 62 62 61 60 58 60 61 62 63 63 63 65 65 64 64 65 65 66 67
66 66 67 67 66 66 65 65 65 64 65 67 65 65 67 67 67 67 66 66 67 66 65 66 65 65 65 65 65 65 65 64 65 64 65 64 65 65 64 65 65 65 65 64 63 62 61 59 58 61 63 63 64 64 63 64 65 63 64 65 66 66
66 67 67 66 66 65 65 65 65 65 66 66 65 66 67 67 67 67 66 66 67 67 66 66 65 65 65 65 65 65 64 64 65 65 65 65 65 65 64 64 64 64 64 65 64 63 62 60 60 62 64 64 64 64 62 64 66 64 64 65 65 65
66 67 66 66 67 66 66 66 66 66 66 65 65 66 67 67 68 66 66 66 66 66 66 66 65 65 65 65 65 64 65 65 64 65 65 64 65 65 65 65 65 65 65 64 64 63 62 61 61 61 62 64 65 65 65 65 65 65 64 64 65 65
67 66 66 66 66 66 65 66 66 65 66 66 66 67 66 66 66 66 65 65 66 66 66 66 65 65 66 65 65 64 64 65 65 65 65 65 65 65 65 65 65 65 65 65 64 62 62 62 61 62 63 64 65 66 66 65 65 66 66 64 64 65
67 67 66 66 66 65 65 65 65 65 67 66 67 66 66 65 66 66 66 66 66 66 66 65 65 64 64 63 63 63 63 64 65 66 65 64 65 64 65 65 64 65 66 64 63 62 62 62 62 62 63 64 64 65 65 65 65 65 65 64 64 63
66 66 66 66 66 65 65 65 65 65 67 67 67 66 66 66 66 66 66 67 67 66 66 66 66 64 63 63 63 63 63 64 65 65 64 64 65 64 65 65 64 64 64 63 63 63 62 61 62 63 64 64 64 66 65 65 66 64 64 65 65 64
65 64 65 66 66 66 66 65 66 68 67 67 66 66 67 66 67 67 66 66 66 66 66 66 65 64 63 63 63 62 63 64 65 65 64 64 64 64 65 64 64 64 63 63 63 62 62 61 62 63 64 64 64 64 64 64 65 65 64 64 63 64
65 65 65 66 66 66 66 66 66 66 66 66 66 66 67 67 67 66 66 66 66 66 66 65 64 65 64 63 63 64 63 64 65 64 63 63 64 64 63 64 63 63 63 62 63 62 62 62 62 63 63 63 64 64 63 64 64 63 64 63 63 64
66 66 66 66 65 65 65 65 64 64 66 66 65 66 66 67 65 65 65 65 66 66 66 65 64 64 64 64 64 64 63 63 64 64 63 63 62 63 63 63 63 62 63 62 62 62 61 62 63 62 62 63 63 63 64 64 64 65 64 64 64 64
65 65 65 65 64 64 64 64 63 63 64 63 64 65 66 65 64 64 64 65 66 66 66 65 65 65 64 63 63 63 63 63 63 64 64 62 61 63 62 62 63 62 63 63 62 61 61 61 62 62 63 63 63 63 64 64 64 63 63 63 63 65
65 65 64 64 64 63 62 62 62 62 63 63 63 64 64 63 63 63 64 65 65 65 65 64 65 64 63 63 62 63 63 63 63 63 62 61 60 62 62 61 62 62 63 63 61 61 61 61 61 61 61 62 63 63 63 64 64 63 63 63 63 63
64 64 64 63 62 61 61 61 61 61 60 61 61 61 61 61 61 62 63 63 64 65 65 65 66 65 64 66 63 63 63 63 63 63 61 60 60 61 61 61 62 62 62 61 61 62 61 61 60 59 60 60 60 62 62 63 62 63 63 64 63 63
64 63 63 63 62 62 61 61 61 61 61 61 60 59 58 60 60 62 63 63 63 63 64 65 66 65 65 64 63 63 63 62 62 63 62 62 61 62 61 62 62 61 61 61 60 62 62 59 57 57 57 56 57 59 62 61 62 62 63 63 63 63
64 64 64 64 63 63 63 63 63 60 58 57 59 57 57 59 60 61 62 62 63 63 64 64 65 65 64 64 63 62 63 62 62 64 62 61 62 62 62 62 62 61 61 61 61 62 61 60 57 59 58 56 54 54 57 59 61 61 62 61 62 62
64 64 64 64 64 63 61 61 60 61 59 58 56 58 58 59 59 60 60 62 64 63 63 64 64 64 64 65 64 63 63 62 62 63 62 62 61 62 61 61 61 61 61 60 59 60 62 61 59 59 54 54 54 54 53 55 57 60 62 62 62 62
64 64 64 63 62 61 61 60 60 58 58 57 56 55 55 57 59 61 60 59 58 60 60 63 64 64 64 63 63 63 63 63 63 63 63 62 62 62 61 61 61 61 59 59 58 58 59 61 60 60 57 54 53 52 52 55 57 58 60 61 62 62
64 63 63 62 61 60 59 59 58 55 54 54 54 54 55 55 56 57 58 59 60 60 61 60 61 63 64 63 62 62 63 63 63 64 63 63 63 62 62 62 61 61 60 59 58 58 58 60 61 62 61 58 55 53 55 56 54 52 58 59 59 62
63 63 62 61 61 60 60 60 59 56 55 54 55 58 56 56 56 58 59 58 58 59 59 59 60 60 61 62 62 62 63 63 63 63 64 63 62 62 63 63 63 62 61 61 59 58 58 58 60 60 61 61 61 59 58 56 52 53 51 52 54 57
63 62 62 61 61 61 60 59 58 58 60 59 58 56 57 55 56 58 57 58 59 57 56 59 59 58 60 60 60 61 63 63 62 62 63 62 62 62 62 63 63 62 62 61 60 59 58 59 59 58 61 60 59 60 59 57 55 52 49 47 47 50
62 61 61 61 61 61 60 60 59 59 59 59 59 56 55 55 55 56 56 57 58 56 57 57 56 58 58 59 59 58 59 59 59 62 62 61 61 62 62 62 61 61 61 61 61 60 59 59 60 59 58 57 59 59 59 60 59 53 50 47 48 48
61 61 61 61 61 61 60 60 59 59 58 57 57 54 55 55 54 55 57 58 56 55 56 57 57 58 57 58 60 60 59 59 58 59 60 61 61 62 62 62 62 62 62 60 60 60 59 59 60 60 59 58 57 56 56 56 56 54 53 51 49 48
60 60 61 61 60 60 60 60 59 59 58 57 55 55 54 53 54 57 54 56 55 54 57 56 58 58 57 59 59 60 58 58 58 60 59 59 59 61 62 62 62 62 62 61 60 60 60 60 59 59 59 58 57 57 56 54 55 55 53 51 49 49
59 60 61 60 59 60 60 59 59 59 59 58 55 54 53 53 55 55 54 55 57 57 55 57 56 54 54 58 58 57 58 57 57 58 58 59 59 60 60 61 62 61 61 61 60 60 60 59 59 59 58 58 58 58 56 56 57 57 53 52 50 48
59 59 60 60 59 59 59 59 59 59 60 58 55 53 54 54 55 55 55 57 56 55 56 57 56 55 54 56 57 57 57 56 55 55 56 57 58 59 59 59 60 61 61 60 60 60 60 59 59 59 58 58 59 58 57 58 58 57 55 54 50 48
59 60 60 59 59 59 59 59 59 59 59 56 55 55 55 54 55 55 56 55 55 54 56 56 54 53 55 56 57 58 58 57 56 56 56 57 57 57 58 58 59 59 60 60 60 60 60 59 59 58 59 59 59 58 59 59 58 58 57 54 50 47
59 59 59 58 58 57 58 59 59 60 59 57 56 56 56 56 55 55 56 54 56 56 56 56 56 56 57 57 58 57 54 53 53 53 53 55 56 55 56 57 58 58 58 59 59 59 59 59 60 59 58 58 58 58 58 59 58 56 56 55 52 47
59 60 58 58 57 57 57 58 59 59 59 57 56 56 56 56 56 55 55 57 57 56 55 54 54 55 57 54 54 54 55 55 55 56 56 56 54 54 54 54 55 55 56 57 53 53 54 54 55 56 56 55 55 56 57 58 57 56 55 55 55 46
60 59 59 58 58 58 58 58 59 59 59 57 56 55 55 56 56 56 57 56 55 54 54 54 56 56 56 56 55 54 53 54 54 54 54 55 54 53 52 51 51 51 51 52 52 50 49 49 49 48 48 48 50 51 52 54 53 53 53 53 54 48

ECMWFFLT2_sfc_dewp_036.txt.gz
Dewpoint
70 70 70 70 70 70 71 72 71 71 71 71 71 71 70 71 71 71 70 71 70 70 69 70 70 69 70 70 70 69 69 69 69 68 68 68 68 68 68 68 67 67 67 67 67 67 67 67 68 68 67 69 69 64 62 62 62 64 64 64 65 64
70 70 70 70 70 70 70 70 70 70 70 70 70 71 70 69 71 69 70 69 67 70 68 68 69 70 70 70 69 69 69 69 68 68 68 68 68 67 67 67 67 67 67 66 66 63 65 67 67 67 68 68 66 64 62 62 63 63 64 64 65 66
69 69 69 69 69 68 68 68 69 69 69 70 70 70 68 68 66 66 66 67 67 66 66 68 68 69 70 69 69 69 69 69 68 68 68 67 67 67 66 66 66 66 65 66 63 62 62 62 61 66 67 65 65 63 62 63 63 64 63 64 64 67
68 68 68 68 68 67 67 67 68 68 68 68 68 68 67 66 65 65 65 65 65 66 66 67 70 70 70 69 68 69 69 68 68 67 67 69 68 67 67 67 66 66 67 65 61 61 62 61 60 60 62 64 64 62 62 63 63 64 65 66 65 67
68 68 68 68 67 67 67 66 66 66 66 67 66 66 65 65 65 65 66 66 66 66 66 67 68 68 68 68 67 67 68 67 67 67 68 65 64 64 65 64 63 64 62 62 62 61 60 60 60 61 62 63 64 62 62 63 64 65 65 65 66 67
67 67 68 67 67 67 66 66 65 65 66 66 66 65 65 65 65 66 66 67 66 65 66 66 66 66 67 66 66 66 66 66 66 65 66 64 64 64 63 64 64 64 64 62 61 61 60 62 61 61 62 62 63 62 62 63 64 64 65 65 66 68
66 67 67 67 67 67 66 65 65 65 65 65 65 65 65 65 65 65 66 67 66 65 65 65 65 65 65 65 65 65 65 64 64 64 65 64 63 64 64 63 63 64 62 62 61 61 61 60 61 61 61 62 63 63 63 63 64 64 65 65 67 68
66 67 67 67 66 66 66 65 65 67 64 66 66 65 65 64 65 66 66 66 67 66 65 65 64 64 64 64 65 65 65 64 63 63 64 64 62 63 63 63 64 63 63 62 61 61 61 59 61 62 61 62 62 63 64 63 64 64 64 64 66 67
66 67 67 66 65 66 66 65 66 65 64 68 64 64 65 65 65 66 66 66 67 65 65 65 64 64 64 64 64 64 64 64 63 64 64 63 63 63 62 63 63 64 63 62 62 61 60 61 62 61 61 62 62 63 64 64 64 64 64 64 65 67
66 66 66 66 65 65 65 65 64 64 65 67 64 65 65 65 65 65 65 66 66 65 64 64 64 63 64 64 64 64 64 63 63 63 64 64 63 63 62 62 62 63 63 62 61 61 60 61 61 61 60 61 62 63 63 64 64 64 65 64 65 66
67 67 66 66 65 65 65 64 64 64 65 65 64 66 65 65 65 65 65 66 66 66 65 64 64 63 64 64 64 64 63 63 63 63 63 63 64 65 63 63 63 63 62 62 61 61 60 61 62 62 62 61 62 62 63 64 65 65 65 65 65 65
67 67 66 66 65 65 64 64 64 65 65 64 65 65 65 65 67 65 65 65 65 65 66 64 64 64 64 64 64 64 64 64 64 64 64 64 64 64 64 64 65 64 63 62 62 61 61 61 61 62 63 63 64 63 64 64 65 65 65 64 64 64
67 66 65 65 65 65 65 65 64 64 65 65 65 65 65 65 65 65 65 65 65 65 65 65 64 65 66 64 64 63 63 64 65 65 64 64 65 64 65 64 64 63 63 62 62 61 61 61 61 62 62 63 64 64 64 64 64 64 64 64 64 64
66 65 65 65 65 65 65 65 65 65 66 65 65 65 65 65 65 65 65 65 65 65 65 64 64 64 64 63 62 62 62 63 64 65 64 64 64 63 64 64 63 63 64 62 61 60 61 61 62 62 62 63 63 63 64 64 64 64 64 64 64 63
66 65 66 65 65 64 65 65 65 65 65 65 65 65 64 64 65 65 65 64 65 65 65 65 64 64 62 62 62 62 62 63 65 64 64 64 64 63 64 64 63 62 62 62 61 61 61 61 62 62 62 63 63 64 63 63 64 64 64 63 63 63
66 65 65 65 64 64 64 64 64 66 65 65 65 65 64 65 65 64 64 64 64 64 65 65 64 63 62 62 62 62 63 64 65 64 64 63 63 63 63 63 62 62 61 61 61 60 60 61 62 62 63 63 63 63 62 63 64 64 64 64 63 63
65 65 65 65 64 64 64 64 64 66 65 65 65 65 65 65 65 65 64 65 64 65 64 64 64 63 62 62 62 62 62 64 64 64 63 62 62 63 63 62 62 62 61 61 61 61 60 61 62 62 62 62 63 62 62 63 63 64 64 63 62 62
64 65 65 65 64 64 65 65 65 65 66 65 65 65 65 65 65 65 65 65 65 65 64 64 64 63 62 63 63 62 63 64 64 63 62 62 62 61 62 63 62 62 62 61 61 60 61 61 62 62 62 62 62 62 62 62 63 65 63 63 63 62
64 65 65 65 65 65 64 64 63 64 64 64 64 64 65 65 65 65 65 65 65 65 65 64 64 64 63 63 63 62 63 63 63 63 62 62 62 63 62 61 61 61 62 61 61 60 61 61 62 62 62 62 62 62 62 63 63 63 62 63 63 63
64 65 64 64 64 64 63 63 63 62 62 62 62 64 64 65 64 64 64 65 65 64 65 64 64 63 63 63 62 62 63 63 63 63 62 62 61 62 62 60 60 61 61 61 61 61 61 61 61 61 61 61 62 62 63 62 62 62 62 63 63 63
64 64 64 63 63 63 62 61 60 62 62 62 62 62 64 63 63 63 64 65 65 64 64 65 64 63 63 64 62 62 62 62 62 63 62 61 60 61 60 60 60 60 59 59 60 60 60 60 59 58 59 59 60 61 62 62 62 62 62 62 63 63
64 63 63 63 62 62 61 61 61 61 60 61 61 61 61 61 62 63 63 63 64 64 64 64 64 63 64 63 62 62 62 62 62 62 61 61 60 62 60 61 61 60 59 58 58 60 60 59 57 57 57 57 59 60 61 61 62 62 62 62 61 62
63 63 62 62 62 61 61 61 61 60 60 59 60 61 60 61 63 62 62 63 63 63 64 64 64 64 63 63 63 62 62 61 61 62 61 60 60 60 60 62 60 60 59 59 59 60 59 58 57 57 57 56 55 55 56 57 59 61 62 60 61 62
63 63 62 62 62 62 62 61 61 60 59 58 57 59 59 60 61 61 61 62 62 63 63 64 64 64 63 63 62 62 62 62 62 62 61 61 60 59 60 60 60 59 59 59 57 59 60 60 58 57 54 53 54 55 53 53 56 59 61 62 61 61
63 63 63 63 63 61 61 59 59 58 58 57 57 58 58 58 58 60 59 59 61 62 63 63 62 63 64 63 62 62 61 61 62 61 61 61 61 61 60 60 60 60 59 58 57 58 59 60 59 59 56 54 52 52 52 53 56 56 58 58 60 62
63 63 63 63 62 61 60 59 58 55 54 54 55 56 56 57 58 58 57 58 60 60 62 62 62 62 62 62 62 62 61 62 61 61 62 61 61 61 60 60 61 61 59 57 58 57 57 58 59 60 58 57 54 52 54 55 53 51 55 57 58 61
63 63 63 61 60 60 58 58 56 54 54 54 54 55 56 58 58 58 58 57 57 58 61 62 61 61 61 61 60 61 61 61 62 61 62 61 61 61 62 62 62 60 59 59 57 56 57 57 58 59 60 60 60 57 57 55 50 52 50 51 52 57
63 63 62 61 60 59 58 58 55 54 54 54 54 54 56 57 58 58 57 57 56 57 59 60 60 60 61 60 60 60 60 60 61 62 62 61 60 60 62 62 62 61 60 59 58 57 57 58 58 58 59 58 58 58 57 55 54 52 51 51 51 52
63 62 61 60 59 60 60 59 57 57 57 56 54 55 56 57 57 57 56 56 56 56 57 57 58 58 58 59 61 60 60 60 60 61 62 61 60 61 60 61 61 60 60 58 58 57 58 58 58 58 57 56 58 57 56 55 53 51 50 49 48 50
62 61 61 60 60 60 60 59 58 58 58 56 54 54 55 56 56 56 56 55 55 55 55 56 56 57 58 59 58 58 58 58 59 60 61 60 60 60 60 60 61 61 60 59 58 58 58 58 58 58 58 57 56 55 54 53 52 51 51 49 49 48
61 61 61 60 60 59 59 59 58 59 57 53 53 53 53 53 55 55 55 54 54 55 56 56 56 56 57 58 58 59 57 58 59 60 60 60 60 60 60 60 61 61 60 59 58 58 57 58 58 58 57 57 57 56 54 51 51 50 50 48 48 47
60 60 60 60 59 59 59 58 59 58 55 53 52 52 51 53 54 55 54 54 54 55 54 54 54 55 56 56 57 56 56 56 57 57 58 58 58 59 59 60 60 60 60 59 59 59 58 57 57 58 57 57 56 55 54 53 53 52 50 49 47 46
59 59 60 59 59 58 58 58 59 58 56 54 53 51 51 53 54 54 54 55 54 54 54 53 53 53 54 55 56 55 54 53 54 56 57 58 58 58 58 59 59 59 59 59 59 58 58 57 57 58 58 57 57 56 56 56 55 53 51 50 48 45
59 59 59 58 58 58 57 58 58 58 58 55 53 52 52 54 54 54 56 55 54 55 54 53 52 52 54 56 56 56 55 54 54 55 56 56 57 57 58 59 58 58 58 57 57 57 57 56 56 56 56 57 56 56 56 57 55 53 51 49 47 45
59 59 59 58 57 57 57 57 58 58 58 55 54 53 53 55 55 55 56 55 55 56 55 53 54 54 55 56 55 53 52 52 53 54 55 56 56 56 56 58 57 57 57 57 57 57 57 57 57 56 56 56 57 57 57 57 55 53 52 49 47 46
59 59 58 58 57 57 57 57 57 57 57 56 56 55 55 55 55 56 55 55 56 56 55 55 55 56 55 54 54 53 54 54 54 54 54 54 54 55 55 56 55 56 56 58 56 56 56 57 56 56 56 55 56 56 56 57 56 56 52 51 49 47
59 59 58 57 57 57 57 57 57 57 57 56 55 54 54 55 55 55 56 56 56 55 54 55 55 55 54 54 54 53 53 52 53 53 53 53 53 53 53 53 53 53 52 51 52 51 51 53 53 55 54 55 55 55 56 55 55 55 55 53 50 46